Location: Basse Occidentale du Courleau
(48.3833°N, 4.8333°W)
Time: 09:39:25
(UTC+00:00)

Lacrosse 5 rocket - Pass Details

Date: 05 July 2020
Orbit: 464 x 632 km, 57.0° (Epoch: 07 August)

Event Time Altitude Azimuth Distance (km) Brightness Sun altitude
Rises 22:51:58 0° 296° (WNW) 2,766 5.7 -16.0°
Reaches altitude 10° 22:54:35 10° 310° (NW) 1,835 4.9 -16.2°
Maximum altitude 22:58:01 25° 7° (N) 1,110 3.6 -16.4°
Drops below altitude 10° 23:01:20 10° 64° (ENE) 1,746 3.9 -16.6°
Sets 23:03:45 0° 78° (ENE) 2,601 4.7 -16.7°
